[[{"header":{"parameterUnit":"m.s-1","parameterCategory":1,"la1":30.2991,"la2":30.254,"lo1":-89.0895,"lo2":-89.0444,"dy":0.0017,"dx":0.0017,"nx":28,"ny":28,"refTime":"2026-01-08T03:00:00:Z","depth":0,"parameterNumber":2,"parameterNumberName":"U-component_of_WINDS"},"data":[0,0,0,0,0,0,0,0,0,0,0,0,0,0,0,0,0,0,0,0,0,0,0,0,0,0,0,0,0,0,0,0,0,0,0,0,0,0,0,0,0,0,0,0,0,0,0,0,0,0,0,0,0,0,0,0,0,0,-3.2381,-3.2382,0,-3.2488,-3.2489,-3.249,-3.2511,-3.251,-3.2509,-3.2508,-3.2616,-3.2619,-3.2623,0,0,0,0,0,0,0,0,0,0,0,0,0,-3.2195,-3.2198,-3.2381,-3.2382,-3.2384,-3.2487,-3.2489,-3.249,-3.2511,-3.251,-3.2509,-3.2508,-3.2615,-3.2619,-3.2623,0,0,0,0,0,0,0,0,0,0,0,0,0,-3.2286,-3.2199,-3.2381,-3.2407,-3.241,-3.2487,-3.2489,-3.2491,-3.2511,-3.251,-3.2509,-3.2508,-3.2613,-3.2619,-3.2624,-3.2683,0,0,-3.2641,-3.2643,0,0,0,0,0,0,0,0,-3.2281,-3.2293,-3.2401,-3.2405,-3.2409,-3.2485,-3.2463,-3.2555,-3.2511,-3.2473,-3.2508,-3.2507,-3.2573,-3.2582,-3.2605,-3.2688,-3.2692,-3.2641,-3.2644,-3.2647,-3.2648,0,0,0,0,0,0,0,-3.2274,-3.2288,-3.2423,-3.2403,-3.2408,-3.2413,-3.2424,-3.248,-3.2529,-3.2476,-3.2478,-3.249,-3.2575,-3.2599,-3.2607,-3.2694,-3.2641,-3.2646,-3.2649,-3.2651,-3.283,-3.2832,0,0,0,0,0,0,-3.2264,-3.2283,-3.242,-3.2426,-3.234,-3.2417,-3.243,-3.2462,-3.2528,-3.2537,-3.2491,-3.2491,-3.259,-3.2601,-3.2611,-3.2683,-3.2647,-3.2652,-3.2655,-3.2829,-3.2831,-3.2832,0,0,0,0,0,0,-3.226,-3.2276,-3.2415,-3.2355,-3.2373,-3.2421,-3.2457,-3.2464,-3.2489,-3.2539,-3.2548,-3.2507,-3.259,-3.2603,-3.2665,-3.2687,-3.2654,-3.2659,-3.2827,-3.2829,-3.2831,-3.2829,0,0,0,0,0,0,-3.2254,-3.2274,-3.2297,-3.2356,-3.2376,-3.2467,-3.2458,-3.2467,-3.2498,-3.2499,-3.2557,-3.2565,-3.259,-3.2656,-3.267,-3.2694,-3.2664,-3.2825,-3.2828,-3.2831,-3.2827,-3.2831,-3.2834,0,0,0,0,0,-3.2247,-3.2292,-3.2298,-3.2314,-3.2406,-3.2469,-3.2481,-3.2509,-3.25,-3.2523,-3.2556,-3.2563,-3.2683,-3.2663,-3.2678,-3.2704,-3.2824,-3.2827,-3.283,-3.2826,-3.283,-3.2834,0,0,0,0,0,0,-3.2234,-3.23,-3.2307,-3.2372,-3.2415,-3.2472,-3.2502,-3.2513,-3.2558,-3.2557,-3.259,-3.2602,-3.2662,-3.269,-3.2665,-3.2765,-3.2753,-3.276,-3.2744,-3.2749,-3.2752,-3.2743,-3.2668,0,0,0,0,0,-3.2238,-3.2284,-3.2339,-3.2391,-3.2412,-3.2453,-3.2482,-3.25,-3.2545,-3.2563,-3.26,-3.2644,-3.2691,-3.2722,-3.2768,-3.2832,-3.2844,-3.2858,-3.2861,-3.2864,-3.2868,-3.2904,-3.291,-3.2843,-3.2843,-3.2843,0,0,-3.2248,-3.229,-3.2316,-3.2389,-3.2424,-3.247,-3.2468,-3.2517,-3.2552,-3.257,-3.263,-3.266,-3.271,-3.2773,-3.2802,-3.2798,-3.289,-3.2868,-3.2869,-3.2873,-3.2908,-3.2914,-3.292,-3.2845,-3.2845,-3.2845,0,0,-3.2289,-3.2326,-3.2372,-3.2408,-3.2462,-3.2489,-3.25,-3.2557,-3.2577,-3.2638,-3.2653,-3.2694,-3.2776,-3.2811,-3.2839,-3.2895,-3.2903,-3.291,-3.2926,-3.296,-3.2966,-3.297,-3.2989,-3.2996,-3.2915,-3.2915,-3.2915,0,-3.2294,-3.2364,-3.2395,-3.2443,-3.2475,-3.2495,-3.2542,-3.2575,-3.2641,-3.2662,-3.2657,-3.2759,-3.2795,-3.2866,-3.2879,-3.2902,-3.2916,-3.2902,-3.2963,-3.2968,-3.2973,-3.2991,-3.2998,-3.2915,-3.2915,-3.2915,-3.2915,0,-3.2367,-3.2416,-3.2448,-3.2511,-3.2546,-3.2594,-3.2631,-3.2663,-3.2679,-3.2707,-3.2769,-3.2813,-3.2868,-3.2887,-3.2902,-3.296,-3.2956,-3.2956,-3.2945,-3.2979,-3.2996,-3.3004,-3.2915,-3.2915,-3.2915,-3.2915,0,0,-3.2401,-3.2482,-3.2492,-3.2521,-3.2583,-3.2621,-3.267,-3.2725,-3.2751,-3.2796,-3.2837,-3.2906,-3.2907,-3.294,-3.296,-3.299,-3.303,-3.2987,-3.2988,-3.2992,-3.3096,-3.3094,-3.3101,-3.3037,-3.3038,-3.304,-3.3091,0,-3.2448,-3.2536,-3.2565,-3.2638,-3.2683,-3.2703,-3.2746,-3.2788,-3.2816,-3.2858,-3.2889,-3.2937,-3.2935,-3.2954,-3.2985,-3.3018,-3.3051,-3.3016,-3.3074,-3.3076,-3.3059,-3.3111,-3.3109,-3.3155,-3.3098,-3.3099,-3.31,0,-3.2514,-3.2561,-3.2638,-3.2694,-3.2714,-3.2751,-3.2804,-3.2845,-3.2893,-3.2911,-3.2948,-3.2966,-3.3017,-3.3004,-3.3076,-3.3051,-3.3077,-3.3097,-3.31,-3.3105,-3.3089,-3.3116,-3.3171,-3.3177,-3.3112,-3.3111,-3.311,0,-3.253,-3.2612,-3.2668,-3.2693,-3.2759,-3.2785,-3.2814,-3.2861,-3.2893,-3.2939,-3.296,-3.3011,-3.3039,-3.3079,-3.311,-3.3098,-3.3179,-3.3168,-3.3194,-3.3193,-3.3209,-3.3207,-3.3267,-3.3228,-3.3228,-3.3228,-3.3228,0,-3.2578,-3.2624,-3.2676,-3.2711,-3.2763,-3.2797,-3.2847,-3.2878,-3.292,-3.296,-3.2982,-3.3019,-3.3059,-3.3102,-3.3127,-3.3182,-3.3195,-3.3211,-3.3216,-3.3208,-3.3206,-3.3224,-3.3221,-3.323,-3.3229,-3.3229,-3.3229,0,-3.2603,-3.264,-3.2703,-3.2761,-3.2777,-3.2813,-3.2863,-3.2897,-3.2926,-3.2978,-3.2992,-3.3038,-3.3089,-3.3125,-3.3191,-3.3208,-3.3267,-3.3273,-3.3251,-3.3253,-3.3277,-3.3273,-3.3349,-3.3361,-3.3315,-3.3316,-3.3316,0,-3.2631,-3.2667,-3.2729,-3.2758,-3.2787,-3.2834,-3.2866,-3.2901,-3.2934,-3.2992,-3.3019,-3.3073,-3.3117,-3.3199,-3.3238,-3.3289,-3.3295,-3.3319,-3.3303,-3.3293,-3.3294,-3.3291,-3.3294,-3.332,-3.332,-3.3321,-3.3321,0,-3.2676,-3.2693,-3.2738,-3.2791,-3.2829,-3.2871,-3.2914,-3.2937,-3.2979,-3.3015,-3.3068,-3.3103,-3.3171,-3.3224,-3.3279,-3.3308,-3.3321,-3.3326,-3.3334,-3.3325,-3.331,-3.3317,-3.3256,-3.3324,-3.3323,-3.3323,-3.3323,-3.3323,-3.2703,-3.2735,-3.2784,-3.2835,-3.2871,-3.2911,-3.2946,-3.298,-3.3025,-3.3083,-3.3102,-3.3157,-3.3205,-3.328,-3.3311,-3.3354,-3.3352,-3.3365,-3.3368,-3.337,-3.3369,-3.3305,-3.3365,-3.3365,-3.3365,-3.3365,-3.3365,0,-3.2748,-3.2781,-3.2827,-3.2886,-3.2926,-3.2936,-3.2984,-3.3017,-3.3065,-3.3109,-3.3152,-3.3214,-3.3265,-3.3309,-3.3362,-3.3388,-3.3396,-3.3401,-3.3398,-3.3405,-3.3368,-3.3355,-3.3394,-3.3394,-3.3394,-3.3394,-3.3394,-3.3394,-3.2776,-3.2832,-3.2854,-3.2928,-3.2961,-3.3015,-3.3042,-3.3079,-3.3114,-3.3181,-3.3224,-3.3253,-3.3296,-3.3353,-3.34,-3.3412,-3.343,-3.3433,-3.3446,-3.3411,-3.3407,-3.3404,-3.3392,-3.3437,-3.3437,-3.3479,-3.3479,-3.3479]},{"header":{"parameterUnit":"m.s-1","parameterCategory":1,"la1":30.2991,"la2":30.254,"lo1":-89.0895,"lo2":-89.0444,"dy":0.0017,"dx":0.0017,"nx":28,"ny":28,"refTime":"2026-01-08T03:00:00:Z","depth":0,"parameterNumber":3,"parameterNumberName":"V-component_of_WINDS"},"data":[0,0,0,0,0,0,0,0,0,0,0,0,0,0,0,0,0,0,0,0,0,0,0,0,0,0,0,0,0,0,0,0,0,0,0,0,0,0,0,0,0,0,0,0,0,0,0,0,0,0,0,0,0,0,0,0,0,0,3.7432,3.7434,0,3.756,3.7561,3.7563,3.7597,3.7596,3.7595,3.7594,3.7724,3.7728,3.7733,0,0,0,0,0,0,0,0,0,0,0,0,0,3.7221,3.7224,3.7432,3.7434,3.7435,3.7559,3.7561,3.7563,3.7597,3.7596,3.7595,3.7594,3.7723,3.7728,3.7733,0,0,0,0,0,0,0,0,0,0,0,0,0,3.7327,3.7225,3.7432,3.7467,3.7472,3.7559,3.7561,3.7563,3.7597,3.7596,3.7595,3.7593,3.7721,3.7727,3.7734,3.7795,0,0,3.7753,3.7755,0,0,0,0,0,0,0,0,3.7321,3.7334,3.746,3.7465,3.747,3.7561,3.7534,3.7641,3.7597,3.7549,3.7594,3.7593,3.7671,3.7681,3.7708,3.7801,3.7807,3.7753,3.7757,3.776,3.7762,0,0,0,0,0,0,0,3.7313,3.7329,3.7483,3.7462,3.7468,3.7477,3.7491,3.7555,3.7615,3.7553,3.7556,3.7571,3.7673,3.7702,3.7711,3.7809,3.7753,3.7759,3.7763,3.7765,3.7964,3.7965,0,0,0,0,0,0,3.73,3.7323,3.7479,3.7486,3.7391,3.7482,3.7498,3.7533,3.7614,3.7626,3.7572,3.7572,3.7691,3.7704,3.7716,3.7796,3.776,3.7766,3.7769,3.7962,3.7964,3.7966,0,0,0,0,0,0,3.7295,3.7313,3.7473,3.7406,3.7427,3.7487,3.7526,3.7536,3.7564,3.7628,3.7639,3.7589,3.7691,3.7707,3.7776,3.7801,3.7768,3.7774,3.796,3.7963,3.7965,3.7955,0,0,0,0,0,0,3.7289,3.7311,3.7334,3.7406,3.743,3.7531,3.7528,3.7539,3.7575,3.7577,3.7648,3.7658,3.7691,3.7767,3.7782,3.7809,3.7779,3.7959,3.7962,3.7964,3.7954,3.7957,3.796,0,0,0,0,0,3.7281,3.7325,3.7335,3.7354,3.746,3.7532,3.7546,3.7583,3.7577,3.7602,3.7643,3.7656,3.7796,3.7773,3.7791,3.782,3.7957,3.7961,3.7964,3.7952,3.7956,3.796,0,0,0,0,0,0,3.7254,3.7335,3.7347,3.7416,3.7467,3.7538,3.757,3.7586,3.764,3.7639,3.7683,3.7699,3.7766,3.78,3.7774,3.7886,3.7877,3.7884,3.7862,3.7866,3.7869,3.786,3.7784,0,0,0,0,0,3.7257,3.7308,3.7376,3.743,3.7456,3.7508,3.7541,3.7566,3.762,3.7642,3.7688,3.7741,3.7798,3.7833,3.7888,3.7959,3.7977,3.7988,3.7991,3.7993,3.7999,3.8043,3.805,3.7977,3.7977,3.7977,0,0,3.7261,3.7312,3.7342,3.7426,3.7469,3.7523,3.7526,3.7581,3.7622,3.765,3.772,3.7756,3.7818,3.7889,3.7923,3.792,3.8023,3.7998,3.7999,3.8004,3.8047,3.8054,3.806,3.7979,3.7979,3.7979,0,0,3.7298,3.7341,3.7393,3.7436,3.7501,3.7536,3.7549,3.7618,3.7644,3.7714,3.7737,3.7787,3.7881,3.7926,3.7961,3.8019,3.8034,3.8036,3.8052,3.8094,3.81,3.8105,3.8129,3.8136,3.8041,3.8041,3.8041,0,3.7296,3.7377,3.7417,3.7473,3.7511,3.754,3.7594,3.7634,3.7713,3.7739,3.7735,3.7857,3.7901,3.7985,3.7999,3.8026,3.8043,3.8028,3.8096,3.8101,3.8107,3.813,3.8139,3.8041,3.8041,3.8041,3.8041,0,3.7373,3.743,3.7464,3.7542,3.7583,3.7637,3.7687,3.7724,3.7746,3.7783,3.7856,3.791,3.7978,3.7999,3.802,3.8087,3.8084,3.8087,3.8078,3.8113,3.8136,3.8145,3.8041,3.8041,3.8041,3.8041,0,0,3.7395,3.7497,3.7509,3.7546,3.7622,3.7667,3.7724,3.7791,3.7824,3.7878,3.7929,3.8011,3.8015,3.8055,3.8082,3.8118,3.8165,3.8118,3.812,3.8127,3.8247,3.8245,3.8254,3.8175,3.8177,3.8179,3.8242,0,3.7444,3.7547,3.7586,3.767,3.7725,3.7755,3.7805,3.7858,3.7894,3.7946,3.7986,3.8045,3.8045,3.807,3.8107,3.8151,3.819,3.8147,3.8225,3.8227,3.821,3.8266,3.8264,3.8321,3.8251,3.8252,3.8253,0,3.7513,3.757,3.7661,3.7734,3.7758,3.7802,3.787,3.7918,3.798,3.8004,3.805,3.8076,3.8139,3.8126,3.8215,3.8185,3.8219,3.8246,3.8249,3.8259,3.8243,3.8279,3.834,3.8349,3.8267,3.8266,3.8265,0,3.7523,3.7623,3.7691,3.7722,3.7807,3.7839,3.7876,3.7936,3.7976,3.8035,3.8061,3.8126,3.8162,3.8213,3.8256,3.8242,3.8342,3.8332,3.8366,3.8365,3.8386,3.8384,3.8455,3.8405,3.8405,3.8404,3.8404,0,3.7574,3.7629,3.7698,3.774,3.7803,3.7848,3.791,3.7949,3.8004,3.8055,3.8085,3.8133,3.8186,3.8241,3.8275,3.8346,3.8361,3.8384,3.8392,3.8382,3.838,3.8406,3.8404,3.8407,3.8406,3.8406,3.8405,0,3.7596,3.7644,3.7721,3.7797,3.7818,3.7861,3.7927,3.797,3.8009,3.8074,3.8092,3.8153,3.822,3.8268,3.8353,3.8377,3.8453,3.846,3.8433,3.8438,3.847,3.8467,3.8562,3.8578,3.8514,3.8515,3.8515,0,3.7626,3.767,3.7751,3.7788,3.7826,3.7884,3.7926,3.7973,3.8015,3.809,3.8125,3.8194,3.8253,3.8359,3.8411,3.8478,3.8489,3.8517,3.8499,3.8489,3.8493,3.849,3.8496,3.852,3.8521,3.8521,3.8521,0,3.7675,3.7698,3.7756,3.7824,3.7873,3.7928,3.7984,3.8013,3.807,3.8116,3.8186,3.8231,3.8321,3.839,3.8463,3.8503,3.8523,3.8527,3.8539,3.853,3.8513,3.8526,3.8443,3.8525,3.8524,3.8524,3.8524,3.8524,3.7704,3.7746,3.7811,3.7876,3.7923,3.7976,3.8021,3.8067,3.8126,3.8203,3.8227,3.83,3.8364,3.8464,3.8505,3.8564,3.8563,3.8579,3.8584,3.8588,3.8589,3.8502,3.8577,3.8577,3.8577,3.8577,3.8577,0,3.7757,3.7801,3.7861,3.7939,3.7991,3.8006,3.807,3.8113,3.8177,3.8235,3.8293,3.8375,3.8443,3.8502,3.8574,3.861,3.8621,3.8627,3.8626,3.8636,3.8584,3.8568,3.8617,3.8617,3.8617,3.8617,3.8617,3.8617,3.7791,3.7863,3.7894,3.7991,3.8035,3.8108,3.8143,3.8193,3.824,3.8331,3.8388,3.8427,3.8486,3.8563,3.8628,3.8644,3.867,3.8674,3.8692,3.8643,3.8639,3.8634,3.862,3.8679,3.8679,3.8739,3.874,3.874]}]]